Tracking 29892 objects as of 21-Nov-2024
HD Live streaming from Space Station
objects crossing your sky now

PICO-01B009

Track PICO-01B009 now!
10-day predictions


NORAD ID: 58287
Int'l Code: 2023-174AH
Perigee: 485.3 km
Apogee: 497.2 km
Inclination: 97.4 °
Period: 94.3 minutes
Semi major axis: 6862 km
RCS: Unknown
Launch date: November 11, 2023
Source: Italy (IT)
Launch site: AIR FORCE WESTERN TEST RANGE (AFWTR)
Your satellite tracking list
Your tracking list is empty




NASA's NSSDC Master Catalog

Two Line Element Set (TLE):
1 58287U 23174AH  24326.08896629  .00023685  00000-0  88745-3 0  9991
2 58287  97.4373  39.2168 0008673  40.0621 320.1256 15.27232598 57589
Source of the keplerian elements: AFSPC